EW7003 Weather Reports


time (UTC)temp
F
wind
direction
speed
knots
gust
knots
rain 1hr
in
rain 24hr
in
rain mn
in
humidity
%
barometer
mb
20260510225241 66 171 5.2 10.4 0.00 0.03 0.00 49 1021.2
20260510224717 66 147 7.8 10.4 0.00 0.03 0.00 50 1021.2
20260510224214 66 166 6.1 9.6 0.00 0.03 0.00 48 1021.2
20260510223751 66 146 2.6 5.2 0.00 0.03 0.00 48 1021.2
20260510223227 66 67 2.6 7.0 0.00 0.03 0.00 48 1021.2
20260510222724 66 182 1.7 7.0 0.00 0.03 0.00 47 1021.2
20260510222225 66 124 4.3 6.1 0.00 0.03 0.00 48 1021.3
20260510221722 66 168 3.5 7.0 0.00 0.03 0.00 48 1021.3
20260510221219 66 160 3.5 7.8 0.00 0.03 0.00 48 1021.4
20260510220716 66 117 4.3 7.8 0.00 0.03 0.00 49 1021.3
20260510220213 66 126 3.5 4.3 0.00 0.03 0.00 48 1021.4
20260510215749 66 127 0.9 4.3 0.00 0.03 0.00 48 1021.5
20260510215225 67 40 2.6 7.0 0.00 0.03 0.00 47 1021.4
20260510214742 67 151 4.3 9.6 0.00 0.03 0.00 47 1021.5
20260510214221 67 139 3.5 9.6 0.00 0.03 0.00 47 1021.6
20260510213738 67 203 3.5 7.0 0.00 0.03 0.00 48 1021.6
20260510213214 67 196 4.3 10.4 0.00 0.03 0.00 46 1021.7
20260510212711 67 163 5.2 13.0 0.00 0.03 0.00 50 1021.8
20260510212228 67 123 2.6 13.0 0.00 0.03 0.00 49 1021.8
20260510211725 66 141 5.2 13.9 0.00 0.03 0.00 50 1021.8
20260510211222 66 174 8.7 14.8 0.00 0.03 0.00 51 1021.8
20260510210719 66 130 8.7 14.8 0.00 0.03 0.00 52 1021.9
20260510210220 65 140 8.7 13.9 0.00 0.03 0.00 53 1021.9
20260510205717 65 145 7.0 13.9 0.00 0.03 0.00 52 1022.0
20260510205213 65 153 9.6 15.6 0.00 0.03 0.00 52 1022.1
20260510204730 66 144 9.6 15.6 0.00 0.03 0.00 51 1022.3
20260510204247 66 164 12.2 15.6 0.00 0.03 0.00 51 1022.2
20260510203723 66 150 7.8 15.6 0.00 0.03 0.00 52 1022.2
20260510203240 65 165 11.3 16.5 0.00 0.03 0.00 54 1022.2
20260510202736 64 159 10.4 16.5 0.00 0.03 0.00 55 1022.5
20260510202216 65 132 11.3 17.4 0.00 0.03 0.00 55 1022.3
20260510201733 65 126 13.9 17.4 0.00 0.03 0.00 54 1022.4
20260510201228 66 145 13.0 17.4 0.00 0.03 0.00 55 1022.5
20260510200725 66 128 13.9 17.4 0.00 0.03 0.00 54 1022.4
20260510200222 66 113 11.3 16.5 0.00 0.03 0.00 53 1022.4
20260510195738 67 155 5.2 16.5 0.00 0.03 0.00 50 1022.5
20260510195213 68 115 2.6 6.1 0.00 0.03 0.00 45 1022.4
20260510194730 67 139 2.6 7.0 0.00 0.03 0.00 44 1022.4
20260510194227 66 184 4.3 9.6 0.00 0.03 0.00 47 1022.6
20260510193728 65 248 6.1 9.6 0.00 0.03 0.00 47 1022.6
20260510193223 64 9 4.3 7.0 0.00 0.03 0.00 47 1022.6
20260510192720 64 327 4.3 7.8 0.00 0.03 0.00 48 1022.6
20260510192217 64 265 3.5 5.2 0.00 0.03 0.00 48 1022.6
20260510191713 64 134 0.9 4.3 0.00 0.03 0.00 48 1022.6
20260510191250 64 279 2.6 7.8 0.00 0.03 0.00 50 1022.7
20260510190726 64 315 4.3 7.8 0.00 0.03 0.00 47 1022.8
20260510190223 64 282 2.6 7.0 0.00 0.03 0.00 52 1022.8
20260510185724 63 258 2.6 8.7 0.00 0.03 0.00 50 1022.9
20260510185240 64 294 1.7 6.1 0.00 0.03 0.00 50 1022.9
20260510184715 63 292 1.7 5.2 0.00 0.03 0.00 51 1023.0
20260510184212 63 321 3.5 7.0 0.00 0.03 0.00 52 1023.1
20260510183728 63 315 2.6 7.0 0.00 0.03 0.00 51 1023.1
20260510183224 63 19 1.7 7.8 0.00 0.03 0.00 51 1023.1
20260510182720 63 326 2.6 7.8 0.00 0.03 0.00 52 1023.1
20260510182217 63 74 1.7 5.2 0.00 0.03 0.00 52 1023.1
20260510181734 62 9 1.7 7.8 0.00 0.03 0.00 54 1023.1
20260510181213 62 323 1.7 8.7 0.00 0.03 0.00 57 1023.1
20260510180749 62 346 6.1 10.4 0.00 0.03 0.00 54 1023.1
20260510180245 62 290 6.1 10.4 0.00 0.03 0.00 53 1023.2
20260510175720 63 16 4.3 7.8 0.00 0.03 0.00 52 1023.1
20260510175217 63 325 2.6 7.8 0.00 0.03 0.00 53 1023.2
20260510174714 63 182 1.7 4.3 0.00 0.03 0.00 55 1023.2
20260510174231 62 55 0.9 8.7 0.00 0.03 0.00 55 1023.2
20260510173727 61 311 5.2 8.7 0.00 0.03 0.00 57 1023.2
20260510173224 61 298 2.6 7.0 0.00 0.03 0.00 58 1023.2
20260510172725 60 16 1.7 7.8 0.00 0.03 0.00 60 1023.3
20260510172242 59 291 3.5 7.8 0.00 0.03 0.00 62 1023.4
20260510171718 59 306 5.2 7.8 0.00 0.03 0.00 61 1023.4
20260510171218 59 323 2.6 4.3 0.00 0.03 0.00 61 1023.4
20260510170730 58 274 1.7 5.2 0.00 0.03 0.00 63 1023.4
20260510170227 58 350 2.6 5.2 0.00 0.03 0.00 64 1023.4
20260510165724 58 271 1.7 6.1 0.00 0.03 0.00 64 1023.4
20260510165220 58 284 5.2 6.1 0.00 0.03 0.00 65 1023.3
20260510164721 58 313 3.5 8.7 0.00 0.03 0.00 63 1023.4
20260510164221 59 340 5.2 8.7 0.00 0.03 0.00 62 1023.4
20260510163714 60 302 3.5 7.8 0.00 0.03 0.00 62 1023.3
20260510163231 60 300 3.5 8.7 0.00 0.03 0.00 62 1023.3
20260510162726 60 288 5.2 8.7 0.00 0.03 0.00 64 1023.3
20260510162222 59 278 3.5 7.8 0.00 0.03 0.00 65 1023.3
20260510161719 59 329 3.5 10.4 0.00 0.03 0.00 68 1023.2
20260510161220 58 241 2.6 10.4 0.00 0.03 0.00 66 1023.2
20260510160716 58 315 3.5 7.0 0.00 0.03 0.00 67 1023.3
20260510160213 57 271 3.5 5.2 0.00 0.03 0.00 68 1023.3
20260510155730 57 288 0.9 7.0 0.00 0.03 0.00 66 1023.3
20260510155226 57 261 5.2 7.0 0.00 0.03 0.00 68 1023.2
20260510154724 57 323 3.5 7.8 0.00 0.03 0.00 67 1023.3
20260510154221 57 308 5.2 7.8 0.00 0.03 0.00 69 1023.3
20260510153738 56 344 4.3 7.0 0.00 0.03 0.00 70 1023.3
20260510153217 55 245 4.3 7.0 0.00 0.03 0.00 72 1023.3
20260510152734 55 273 2.6 8.7 0.00 0.03 0.00 74 1023.2
20260510152229 55 236 7.0 8.7 0.00 0.03 0.00 76 1023.2
20260510151727 54 267 4.3 7.8 0.00 0.03 0.00 80 1023.2
20260510151223 54 252 3.5 7.8 0.00 0.03 0.00 81 1023.1
20260510150719 53 265 4.3 7.8 0.00 0.03 0.00 82 1023.2
20260510150215 53 260 5.2 7.0 0.00 0.03 0.00 83 1023.1
20260510145712 52 207 4.3 7.8 0.00 0.03 0.00 85 1023.1
20260510145212 52 245 5.2 7.8 0.00 0.03 0.00 86 1023.2
20260510144729 51 268 5.2 7.0 0.00 0.03 0.00 85 1023.2
20260510144226 51 279 4.3 7.0 0.00 0.03 0.00 86 1023.2
20260510143743 50 266 3.5 5.2 0.00 0.03 0.00 86 1023.2
20260510143239 50 265 2.6 5.2 0.00 0.03 0.00 86 1023.2
20260510142714 50 295 2.6 6.1 0.00 0.03 0.00 86 1023.2
20260510142229 50 281 4.3 6.1 0.00 0.03 0.00 86 1023.2
20260510141725 49 291 2.6 5.2 0.00 0.03 0.00 87 1023.3
20260510141222 49 293 3.5 7.0 0.00 0.03 0.00 88 1023.3
20260510140743 49 329 3.5 7.0 0.00 0.03 0.00 88 1023.4
20260510140218 49 309 3.5 7.0 0.00 0.03 0.00 88 1023.4
20260510135715 49 321 2.6 5.2 0.00 0.03 0.00 88 1023.4
20260510135211 48 346 2.6 7.0 0.00 0.03 0.00 89 1023.4
20260510134728 48 346 4.3 7.0 0.00 0.03 0.00 89 1023.5
20260510134224 48 329 3.5 5.2 0.00 0.03 0.00 89 1023.4
20260510133721 48 329 3.5 5.2 0.00 0.03 0.00 89 1023.4
20260510133218 48 340 2.6 3.5 0.00 0.03 0.00 89 1023.3
20260510132719 48 338 1.7 4.3 0.00 0.03 0.00 89 1023.3
20260510132216 48 346 2.6 4.3 0.00 0.03 0.00 89 1023.4
20260510131734 48 355 2.6 5.2 0.00 0.03 0.00 90 1023.2
20260510131228 47 11 3.5 5.2 0.00 0.03 0.00 90 1023.3
20260510130723 47 347 3.5 5.2 0.00 0.03 0.00 90 1023.3
20260510130219 47 344 3.5 5.2 0.00 0.03 0.00 90 1023.2
20260510125736 47 360 4.3 5.2 0.00 0.03 0.00 90 1023.2
20260510125212 47 350 4.3 8.7 0.00 0.03 0.00 90 1023.1
20260510124729 47 333 5.2 8.7 0.00 0.03 0.00 90 1023.1
20260510124210 47 350 5.2 8.7 0.00 0.03 0.00 90 1023.0
20260510123726 47 333 4.3 7.8 0.00 0.03 0.00 91 1022.9
20260510123223 47 360 6.1 8.7 0.00 0.03 0.00 91 1022.9
20260510122720 47 350 4.3 8.7 0.00 0.03 0.00 91 1022.9
20260510122217 47 13 5.2 8.7 0.00 0.03 0.00 91 1022.8
20260510121713 47 355 5.2 7.8 0.00 0.03 0.00 91 1022.7
20260510121211 47 321 5.2 7.8 0.00 0.03 0.00 92 1022.6
20260510120711 47 342 5.2 8.7 0.00 0.03 0.00 92 1022.6
20260510120227 47 344 6.1 8.7 0.00 0.03 0.00 92 1022.6
20260510115725 47 324 4.3 7.0 0.00 0.03 0.00 92 1022.5
20260510115222 47 345 4.3 7.8 0.00 0.03 0.00 92 1022.4
20260510114719 47 340 4.3 7.8 0.00 0.03 0.00 92 1022.3
20260510114215 47 340 4.3 7.8 0.00 0.03 0.00 92 1022.2
20260510113712 47 323 3.5 7.0 0.00 0.03 0.00 92 1022.3
20260510113213 47 339 5.2 7.0 0.00 0.03 0.00 92 1022.2
20260510112709 47 325 3.5 7.0 0.00 0.03 0.00 92 1022.1
20260510112246 47 323 4.3 5.2 0.00 0.03 0.00 92 1022.0
20260510111721 47 339 3.5 5.2 0.00 0.03 0.00 92 1022.0
20260510111219 47 333 3.5 3.5 0.00 0.03 0.00 91 1022.0
20260510110716 47 335 2.6 3.5 0.00 0.03 0.00 91 1021.9
20260510110233 47 321 1.7 5.2 0.00 0.03 0.00 91 1021.9
20260510105749 47 315 3.5 5.2 0.00 0.03 0.00 91 1022.0
20260510105244 47 298 4.3 6.1 0.00 0.03 0.00 91 1022.0
20260510104741 47 306 3.5 4.3 0.00 0.03 0.00 91 1021.9
20260510104220 47 324 3.5 3.5 0.00 0.03 0.00 91 1021.9
20260510103716 47 309 2.6 4.3 0.00 0.03 0.00 91 1021.8
20260510103213 47 333 2.6 4.3 0.00 0.03 0.00 91 1021.6
20260510102729 47 348 2.6 3.5 0.00 0.03 0.00 90 1021.4
20260510102224 47 355 2.6 4.3 0.00 0.03 0.00 91 1021.5
20260510101720 47 9 1.7 4.3 0.00 0.03 0.00 91 1021.4
20260510101217 47 9 3.5 4.3 0.00 0.03 0.00 91 1021.2
20260510100714 47 336 2.6 4.3 0.00 0.03 0.00 91 1021.5
20260510100215 47 337 2.6 5.2 0.00 0.03 0.00 91 1021.5
20260510095732 47 340 3.5 5.2 0.00 0.03 0.00 91 1021.7
20260510095228 47 320 2.6 5.2 0.00 0.03 0.00 91 1021.8
20260510094725 47 324 4.3 5.2 0.00 0.03 0.00 91 1021.9
20260510094221 47 327 4.3 5.2 0.00 0.03 0.00 91 1021.8
20260510093719 47 329 3.5 5.2 0.00 0.03 0.00 91 1021.7
20260510093216 47 331 3.5 5.2 0.00 0.03 0.00 91 1021.6
20260510092716 47 333 3.5 5.2 0.00 0.03 0.00 91 1021.6
20260510092234 48 334 2.6 4.3 0.00 0.03 0.00 90 1021.4
20260510091728 48 334 2.6 4.3 0.00 0.03 0.03 90 1021.5
20260510091225 48 311 2.6 3.5 0.00 0.03 0.03 90 1021.5
20260510090721 48 290 1.7 2.6 0.00 0.03 0.03 90 1021.4
20260510090218 48 290 1.7 3.5 0.00 0.03 0.03 91 1021.3
20260510085716 48 290 1.7 4.3 0.00 0.03 0.03 91 1021.3
20260510085212 48 287 3.5 5.2 0.00 0.03 0.03 91 1021.4
20260510084713 48 295 3.5 5.2 0.00 0.03 0.03 91 1021.3
20260510084209 48 312 2.6 7.0 0.00 0.03 0.03 91 1021.1
20260510083727 48 326 3.5 7.8 0.00 0.03 0.03 91 1021.2
20260510083223 48 347 5.2 7.8 0.00 0.03 0.03 91 1021.1
20260510082720 48 321 5.2 7.8 0.00 0.03 0.03 90 1021.0
20260510082238 48 326 4.3 7.0 0.00 0.03 0.03 90 1020.9
20260510081734 48 334 4.3 7.0 0.00 0.03 0.03 90 1020.7
20260510081210 48 341 4.3 7.0 0.00 0.03 0.03 90 1020.5
20260510080711 48 360 4.3 7.0 0.00 0.03 0.03 90 1020.6
20260510080227 48 355 4.3 7.8 0.00 0.03 0.03 90 1020.7
20260510075724 47 22 5.2 7.8 0.00 0.03 0.03 90 1020.6
20260510075221 47 349 4.3 8.7 0.00 0.03 0.03 90 1020.6
20260510074738 47 351 5.2 9.6 0.00 0.03 0.03 90 1020.6
20260510074213 47 17 5.2 8.7 0.00 0.03 0.03 91 1020.6
20260510073709 47 348 5.2 8.7 0.00 0.03 0.03 91 1020.7
20260510073246 47 355 5.2 8.7 0.00 0.03 0.03 90 1020.8
20260510072722 47 348 5.2 7.0 0.00 0.03 0.03 90 1020.6
20260510072223 47 336 4.3 7.0 0.00 0.03 0.03 90 1020.6
20260510071719 47 347 4.3 5.2 0.00 0.03 0.03 90 1020.4
20260510071214 47 9 2.6 7.0 0.00 0.03 0.03 90 1020.3
20260510070712 47 24 4.3 7.8 0.00 0.03 0.03 90 1020.4
20260510070249 47 348 4.3 7.8 0.00 0.03 0.03 90 1020.3
20260510065725 47 5 5.2 7.8 0.00 0.03 0.03 90 1020.3
20260510065222 47 24 3.5 7.8 0.00 0.03 0.03 90 1020.3
20260510064718 47 24 6.1 7.8 0.00 0.03 0.03 90 1020.4
20260510064218 48 39 6.1 8.7 0.00 0.03 0.03 90 1020.2
20260510063734 48 39 6.1 10.4 0.00 0.03 0.03 90 1020.2
20260510063209 48 43 7.8 10.4 0.00 0.03 0.03 90 1019.9
20260510062726 48 46 6.1 10.4 0.00 0.03 0.03 90 1019.8
20260510062223 49 38 7.8 12.2 0.00 0.03 0.03 90 1019.7
20260510061719 49 48 9.6 12.2 0.00 0.03 0.03 90 1019.5
20260510061230 49 58 8.7 14.8 0.00 0.03 0.03 90 1019.5
20260510060739 49 53 9.6 14.8 0.00 0.03 0.03 90 1019.3
20260510060219 49 44 11.3 15.6 0.00 0.03 0.03 90 1019.3
20260510055715 49 45 13.0 15.6 0.00 0.03 0.03 90 1019.5
20260510055212 49 51 11.3 14.8 0.00 0.03 0.03 90 1019.5
20260510054729 50 37 11.3 16.5 0.00 0.03 0.03 90 1019.6
20260510054225 50 40 12.2 17.4 0.00 0.03 0.03 90 1019.2
20260510053722 50 49 13.0 17.4 0.00 0.03 0.03 90 1018.6
20260510053219 50 65 13.0 15.6 0.00 0.03 0.03 90 1018.8
20260510052715 50 74 11.3 13.0 0.00 0.03 0.03 90 1019.3
20260510052216 50 88 8.7 12.2 0.00 0.03 0.03 90 1019.4
20260510051713 50 88 9.6 13.0 0.00 0.03 0.03 90 1019.3
20260510051249 50 91 10.4 13.0 0.00 0.03 0.03 89 1019.1
20260510050724 50 95 7.8 12.2 0.01 0.03 0.03 89 1019.5
20260510050220 50 84 8.7 13.0 0.01 0.03 0.03 89 1019.8
20260510045718 50 78 9.6 13.0 0.01 0.03 0.03 89 1019.9
20260510045215 50 69 10.4 13.0 0.01 0.03 0.03 89 1019.8
20260510044711 50 51 10.4 13.9 0.02 0.03 0.03 89 1020.0
20260510044210 50 52 10.4 15.6 0.03 0.03 0.03 89 1019.8
20260510043727 50 51 12.2 16.5 0.03 0.03 0.03 89 1019.6
20260510043225 50 50 12.2 14.8 0.03 0.03 0.03 88 1019.3
20260510042721 50 54 11.3 18.2 0.03 0.03 0.03 88 1019.1
20260510042218 50 65 12.2 18.2 0.03 0.03 0.03 88 1019.1
20260510041733 50 24 5.2 17.4 0.03 0.03 0.03 87 1019.1
20260510041228 51 26 7.0 19.1 0.03 0.03 0.03 87 1019.0
20260510040745 50 69 13.0 21.7 0.02 0.02 0.02 87 1018.5
20260510040221 51 43 16.5 23.5 0.02 0.02 0.02 86 1018.6
20260510035722 51 67 18.2 26.1 0.02 0.02 0.02 85 1018.2
20260510035219 51 56 20.0 26.1 0.02 0.02 0.02 84 1018.4
20260510034716 51 62 18.2 24.3 0.01 0.01 0.01 82 1018.1
20260510034213 52 59 18.2 25.2 0.00 0.00 0.00 78 1018.0
20260510033729 52 38 19.1 26.9 0.00 0.00 0.00 77 1018.4
20260510033226 52 17 16.5 26.9 0.00 0.00 0.00 75 1018.5
20260510032723 52 41 20.9 29.5 0.00 0.00 0.00 74 1017.9
20260510032224 52 47 22.6 29.5 0.00 0.00 0.00 73 1017.3
20260510031721 52 48 23.5 29.5 0.00 0.00 0.00 73 1016.8
20260510031218 52 47 22.6 33.9 0.00 0.00 0.00 72 1016.7
20260510030735 52 45 23.5 33.9 0.00 0.00 0.00 72 1016.3
20260510030230 52 38 22.6 33.0 0.00 0.00 0.00 72 1016.0
20260510025746 53 42 24.3 33.0 0.00 0.00 0.00 71 1015.8
20260510025222 53 43 26.1 33.0 0.00 0.00 0.00 69 1015.6
20260510024718 53 36 25.2 32.2 0.00 0.00 0.00 70 1015.6
20260510024219 53 24 24.3 33.0 0.00 0.00 0.00 70 1015.4
20260510023716 53 36 25.2 33.0 0.00 0.00 0.00 69 1014.9
20260510023212 53 41 24.3 34.8 0.00 0.00 0.00 68 1014.7
20260510022730 54 39 26.9 34.8 0.00 0.00 0.00 65 1014.6
20260510022246 56 30 20.9 33.9 0.00 0.00 0.00 60 1014.8
20260510021722 58 34 20.9 27.8 0.00 0.00 0.00 56 1014.9
20260510021219 61 355 16.5 26.1 0.00 0.00 0.00 49 1014.6
20260510020715 62 360 14.8 26.1 0.00 0.00 0.00 47 1014.8
20260510020217 62 333 13.9 20.0 0.00 0.00 0.00 50 1014.6
20260510015713 61 5 8.7 11.3 0.00 0.00 0.00 51 1014.1
20260510015210 61 5 5.2 8.7 0.00 0.00 0.00 50 1013.4
20260510014726 62 34 5.2 8.7 0.00 0.00 0.00 50 1013.1
20260510014244 62 63 6.1 11.3 0.00 0.00 0.00 49 1012.7
20260510013719 63 71 8.7 12.2 0.00 0.00 0.00 48 1012.5
20260510013216 64 71 9.6 13.9 0.00 0.00 0.00 47 1012.4
20260510012732 64 68 10.4 15.6 0.00 0.00 0.00 46 1012.3
20260510012230 65 69 12.2 17.4 0.00 0.00 0.00 45 1012.3
20260510011727 65 64 12.2 16.5 0.00 0.00 0.00 45 1012.3
20260510011223 65 69 12.2 16.5 0.00 0.00 0.00 45 1012.1
20260510010720 65 82 12.2 16.5 0.00 0.00 0.00 45 1012.0
20260510010216 66 66 13.0 19.1 0.00 0.00 0.00 45 1011.9
20260510005712 66 71 13.0 19.1 0.00 0.00 0.00 45 1011.7
20260510005248 67 74 13.0 19.1 0.00 0.00 0.00 44 1011.6
20260510004744 67 86 13.9 20.0 0.00 0.00 0.00 43 1011.4
20260510004220 68 77 13.9 20.9 0.00 0.00 0.00 43 1011.4
20260510003721 68 57 16.5 20.9 0.00 0.00 0.00 42 1011.4
20260510003216 69 57 14.8 20.0 0.00 0.00 0.00 41 1011.3
20260510002713 70 77 13.9 19.1 0.00 0.00 0.00 37 1011.3
20260510002210 70 74 13.9 20.0 0.00 0.00 0.00 36 1011.2
20260510001727 70 65 15.6 21.7 0.00 0.00 0.00 37 1011.1
20260510001224 70 60 14.8 21.7 0.00 0.00 0.00 37 1011.1
20260510000721 71 65 17.4 21.7 0.00 0.00 0.00 36 1011.0
20260510000222 71 58 18.2 21.7 0.00 0.00 0.00 36 1011.0
20260509235719 72 57 14.8 21.7 0.00 0.00 0.00 37 1011.0
20260509235236 72 51 17.4 26.1 0.00 0.00 0.00 36 1010.9
20260509234712 72 74 19.1 26.1 0.00 0.00 0.00 36 1010.8
20260509234227 73 67 18.2 23.5 0.00 0.00 0.00 35 1010.8
20260509233723 73 48 19.1 24.3 0.00 0.00 0.00 34 1010.6
20260509233220 74 65 16.5 20.9 0.00 0.00 0.00 33 1010.6
20260509232716 75 59 10.4 15.6 0.00 0.00 0.00 30 1010.4
20260509232216 75 57 10.4 17.4 0.00 0.00 0.00 30 1010.4
20260509231712 75 57 11.3 17.4 0.00 0.00 0.00 30 1010.3
20260509231229 75 78 9.6 16.5 0.00 0.00 0.00 29 1010.3
20260509230746 75 59 12.2 19.1 0.00 0.00 0.00 30 1010.5
20260509230222 75 32 13.0 19.1 0.00 0.00 0.00 29 1010.4
20260509225719 75 41 12.2 19.1 0.00 0.00 0.00 28 1010.3